Weather History for Mosby, MO

Change the Weather History Date:

Thursday, February 14, 2013

  Actual Average (KMKC) Record (KMKC)
Temperature  
Mean Temperature 41 °F -  
Max Temperature 50 °F 44 °F 66 °F (2005)
Min Temperature 32 °F 27 °F 7 °F (2007)
Degree Days  
Heating Degree Days 24    
Moisture  
Dew Point 28 °F    
Average Humidity 62    
Maximum Humidity 87    
Minimum Humidity 43    
Precipitation  
Precipitation 0.00 in - - ()
Sea Level Pressure  
Sea Level Pressure 29.98 in    
Wind  
Wind Speed 5 mph (WNW)    
Max Wind Speed 17 mph    
Max Gust Speed 23 mph    
Visibility 10 miles    
Events      
Averages and records for this station are not official NWS values.
T = Trace of Precipitation, MM = Missing Value Source: NWS Daily Summary

Daily Weather History Graph

Daily Weather History Graph

Search for Another Location

Airport:

Trip Planner

Search our weather history database for the weather conditions in past years. The results will help you decide how hot, cold, wet, or windy it might be!

Date:

Astronomy

Feb. 14, 2013 Rise Set
Actual Time 7:10 AM CST 5:53 PM CST
Civil Twilight 6:42 AM CST 6:20 PM CST
Nautical Twilight 6:11 AM CST 6:52 PM CST
Astronomical Twilight 5:39 AM CST 7:23 PM CST
Moon 9:14 AM CST (2/14) 10:54 PM CST (2/14)
Length of Visible Light 11h 38m
Length of Day
10h 43m
Waxing Crescent, 22% of the Moon is Illuminated
Feb 14
Waxing Crescent
Feb 17
First Quarter
Feb 25
Full
Mar 4
Last Quarter
Mar 11
New

Hourly Weather History & Observations

Time (CST) Temp. Windchill Dew Point Humidity Pressure Visibility Wind Dir Wind Speed Gust Speed Precip Events Conditions
12:15 AM 35.6 °F - 28.4 °F 75% 29.81 in 10.0 mi Calm Calm - N/A   Clear
12:35 AM 37.4 °F - 26.6 °F 65% 29.82 in 10.0 mi Calm Calm - N/A   Clear
12:55 AM 37.4 °F 34.9 °F 26.6 °F 65% 29.82 in 10.0 mi West 3.5 mph - N/A   Clear
1:15 AM 39.2 °F 35.9 °F 26.6 °F 61% 29.82 in 10.0 mi West 4.6 mph - N/A   Clear
1:35 AM 37.4 °F - 26.6 °F 65% 29.83 in 10.0 mi Calm Calm - N/A   Clear
1:55 AM 39.2 °F 35.9 °F 26.6 °F 61% 29.83 in 10.0 mi West 4.6 mph - N/A   Clear
2:15 AM 37.4 °F - 26.6 °F 65% 29.83 in 10.0 mi Calm Calm - N/A   Clear
2:35 AM 35.6 °F - 26.6 °F 70% 29.83 in 10.0 mi Calm Calm - N/A   Clear
2:55 AM 33.8 °F - 28.4 °F 81% 29.84 in 10.0 mi Calm Calm - N/A   Clear
3:15 AM 33.8 °F - 26.6 °F 75% 29.84 in 10.0 mi Calm Calm - N/A   Clear
3:55 AM 35.6 °F - 26.6 °F 70% 29.85 in 10.0 mi Calm Calm - N/A   Mostly Cloudy
4:15 AM 33.8 °F - 26.6 °F 75% 29.85 in 10.0 mi Calm Calm - N/A   Mostly Cloudy
4:35 AM 33.8 °F - 28.4 °F 81% 29.86 in 10.0 mi Calm Calm - N/A   Overcast
4:55 AM 37.4 °F 34.9 °F 28.4 °F 70% 29.87 in 10.0 mi WNW 3.5 mph - N/A   Mostly Cloudy
5:15 AM 33.8 °F - 28.4 °F 81% 29.87 in 10.0 mi Calm Calm - N/A   Mostly Cloudy
5:35 AM 32.0 °F - 28.4 °F 87% 29.88 in 10.0 mi Calm Calm - N/A   Mostly Cloudy
5:55 AM 33.8 °F 28.6 °F 28.4 °F 81% 29.89 in 10.0 mi WNW 5.8 mph - N/A   Scattered Clouds
6:15 AM 37.4 °F 34.9 °F 30.2 °F 75% 29.90 in 10.0 mi West 3.5 mph - N/A   Scattered Clouds
6:35 AM 37.4 °F 34.9 °F 30.2 °F 75% 29.90 in 10.0 mi WSW 3.5 mph - N/A   Clear
6:55 AM 35.6 °F - 28.4 °F 75% 29.91 in 10.0 mi Calm Calm - N/A   Clear
7:15 AM 32.0 °F - 28.4 °F 87% 29.92 in 10.0 mi Calm Calm - N/A   Clear
7:35 AM 32.0 °F 28.7 °F 28.4 °F 87% 29.93 in 10.0 mi SW 3.5 mph - N/A   Clear
7:55 AM 33.8 °F 28.6 °F 30.2 °F 87% 29.94 in 10.0 mi WSW 5.8 mph - N/A   Clear
8:15 AM 35.6 °F 32.8 °F 32.0 °F 87% 29.95 in 10.0 mi WSW 3.5 mph - N/A   Clear
8:35 AM 39.2 °F 35.9 °F 32.0 °F 75% 29.97 in 10.0 mi West 4.6 mph - N/A   Clear
8:55 AM 41.0 °F 34.7 °F 32.0 °F 70% 29.98 in 10.0 mi NW 10.4 mph - N/A   Clear
9:15 AM 41.0 °F 34.3 °F 32.0 °F 70% 29.98 in 10.0 mi NW 11.5 mph 17.3 mph N/A   Clear
9:35 AM 42.8 °F 35.4 °F 32.0 °F 66% 29.98 in 10.0 mi NW 15.0 mph 20.7 mph N/A   Clear
9:55 AM 42.8 °F 35.1 °F 32.0 °F 66% 29.99 in 10.0 mi NW 16.1 mph 21.9 mph N/A   Clear
10:15 AM 42.8 °F 35.8 °F 32.0 °F 66% 29.99 in 10.0 mi NW 13.8 mph - N/A   Clear
10:35 AM 44.6 °F 38.4 °F 32.0 °F 61% 29.99 in 10.0 mi NW 12.7 mph 18.4 mph N/A   Clear
10:55 AM 44.6 °F 37.2 °F 32.0 °F 61% 29.99 in 10.0 mi NNW 17.3 mph 23.0 mph N/A   Clear
11:15 AM 44.6 °F 39.2 °F 30.2 °F 57% 30.01 in 10.0 mi NW 10.4 mph 17.3 mph N/A   Clear
11:35 AM 46.4 °F 40.1 °F 30.2 °F 53% 30.01 in 10.0 mi NNW 15.0 mph 19.6 mph N/A   Clear
11:55 AM 46.4 °F 40.4 °F 30.2 °F 53% 30.01 in 10.0 mi NW 13.8 mph 17.3 mph N/A   Clear
12:15 PM 46.4 °F 40.4 °F 30.2 °F 53% 30.02 in 10.0 mi NW 13.8 mph - N/A   Clear
12:35 PM 46.4 °F 41.9 °F 30.2 °F 53% 30.01 in 10.0 mi NW 9.2 mph 18.4 mph N/A   Clear
12:55 PM 48.2 °F - 30.2 °F 50% 30.02 in 10.0 mi West 11.5 mph - N/A   Clear
1:15 PM 48.2 °F - 30.2 °F 50% 30.01 in 10.0 mi WNW 13.8 mph 18.4 mph N/A   Clear
1:35 PM 48.2 °F - 30.2 °F 50% 30.00 in 10.0 mi NW 11.5 mph 17.3 mph N/A   Clear
2:15 PM 50.0 °F - 30.2 °F 47% 30.00 in 10.0 mi WNW 13.8 mph 19.6 mph N/A   Clear
2:35 PM 48.2 °F - 30.2 °F 50% 30.00 in 10.0 mi NW 12.7 mph 20.7 mph N/A   Clear
2:55 PM 50.0 °F - 30.2 °F 47% 30.01 in 10.0 mi WNW 8.1 mph 16.1 mph N/A   Clear
3:15 PM 50.0 °F - 28.4 °F 43% 30.01 in 10.0 mi WNW 13.8 mph 18.4 mph N/A   Clear
3:35 PM 50.0 °F - 30.2 °F 47% 30.02 in 10.0 mi WNW 13.8 mph 17.3 mph N/A   Clear
3:55 PM 50.0 °F - 30.2 °F 47% 30.02 in 10.0 mi NW 11.5 mph - N/A   Scattered Clouds
4:15 PM 50.0 °F - 28.4 °F 43% 30.02 in 10.0 mi WNW 16.1 mph 20.7 mph N/A   Clear
4:35 PM 50.0 °F - 28.4 °F 43% 30.03 in 10.0 mi NW 11.5 mph 17.3 mph N/A   Clear
5:15 PM 48.2 °F - 28.4 °F 46% 30.05 in 10.0 mi NW 11.5 mph - N/A   Clear
5:35 PM 46.4 °F 40.7 °F 28.4 °F 50% 30.05 in 10.0 mi NW 12.7 mph 23.0 mph N/A   Mostly Cloudy
5:55 PM 46.4 °F 40.7 °F 26.6 °F 46% 30.07 in 10.0 mi NW 12.7 mph 20.7 mph N/A   Mostly Cloudy
6:15 PM 44.6 °F 39.2 °F 26.6 °F 49% 30.07 in 10.0 mi NW 10.4 mph - N/A   Scattered Clouds
6:35 PM 44.6 °F 40.2 °F 26.6 °F 49% 30.08 in 10.0 mi NW 8.1 mph - N/A   Mostly Cloudy
6:55 PM 44.6 °F 40.2 °F 26.6 °F 49% 30.09 in 10.0 mi NW 8.1 mph - N/A   Mostly Cloudy
7:15 PM 42.8 °F 39.3 °F 26.6 °F 53% 30.09 in 10.0 mi NW 5.8 mph - N/A   Scattered Clouds
7:35 PM 42.8 °F 40.1 °F 26.6 °F 53% 30.09 in 10.0 mi NW 4.6 mph - N/A   Scattered Clouds
7:55 PM 42.8 °F 40.1 °F 26.6 °F 53% 30.10 in 10.0 mi WNW 4.6 mph - N/A   Mostly Cloudy
8:15 PM 41.0 °F 38.0 °F 24.8 °F 53% 30.10 in 10.0 mi WNW 4.6 mph - N/A   Mostly Cloudy
8:35 PM 41.0 °F 39.0 °F 24.8 °F 53% 30.10 in 10.0 mi West 3.5 mph - N/A   Scattered Clouds
8:55 PM 41.0 °F 39.0 °F 26.6 °F 57% 30.10 in 10.0 mi West 3.5 mph - N/A   Scattered Clouds
9:15 PM 37.4 °F 34.9 °F 26.6 °F 65% 30.11 in 10.0 mi West 3.5 mph - N/A   Scattered Clouds
9:35 PM 39.2 °F 35.0 °F 26.6 °F 61% 30.11 in 10.0 mi West 5.8 mph - N/A   Mostly Cloudy
9:55 PM 37.4 °F 32.8 °F 26.6 °F 65% 30.11 in 10.0 mi WNW 5.8 mph - N/A   Scattered Clouds
10:15 PM 37.4 °F 32.8 °F 24.8 °F 60% 30.12 in 10.0 mi West 5.8 mph - N/A   Scattered Clouds
10:35 PM 37.4 °F 32.1 °F 24.8 °F 60% 30.13 in 10.0 mi WNW 6.9 mph - N/A   Scattered Clouds
11:15 PM 37.4 °F 29.8 °F 26.6 °F 65% 30.14 in 10.0 mi NW 11.5 mph - N/A   Scattered Clouds
11:35 PM 37.4 °F 31.4 °F 26.6 °F 65% 30.15 in 10.0 mi NW 8.1 mph - N/A   Mostly Cloudy
11:55 PM 35.6 °F 28.6 °F 28.4 °F 75% 30.15 in 10.0 mi NW 9.2 mph - N/A   Overcast